Weather History for Wallops Island, VA

Change the Weather History Date:

Monday, January 7, 2013

  Actual Average Record
Temperature  
Mean Temperature 42 °F 37 °F  
Max Temperature 52 °F 45 °F 69 °F (2008)
Min Temperature 31 °F 28 °F 12 °F (1980)
Degree Days  
Heating Degree Days 23    
Month to date heating degree days 178  
Since 1 July heating degree days 1420  
Cooling Degree Days 0    
Month to date cooling degree days 0  
Year to date cooling degree days 0  
Moisture  
Dew Point 28 °F    
Average Humidity 55    
Maximum Humidity 75    
Minimum Humidity 35    
Precipitation  
Precipitation 0.00 in 0.10 in 0.29 in (2009)
Month to date precipitation 0.13 0.68  
Year to date precipitation 0.13 0.68  
Sea Level Pressure  
Sea Level Pressure 30.33 in    
Wind  
Wind Speed 5 mph (NNW)    
Max Wind Speed 16 mph    
Max Gust Speed 22 mph    
Visibility 10 miles    
Events      
T = Trace of Precipitation, MM = Missing Value Source: NWS Daily Summary

Daily Weather History Graph

Daily Weather History Graph

Search for Another Location

Airport:

Trip Planner

Search our weather history database for the weather conditions in past years. The results will help you decide how hot, cold, wet, or windy it might be!

Date:

Astronomy

Jan. 07, 2013 Rise Set
Actual Time 7:18 AM EST 4:58 PM EST
Civil Twilight 6:48 AM EST 5:27 PM EST
Nautical Twilight 6:16 AM EST 6:00 PM EST
Astronomical Twilight 5:44 AM EST 6:32 PM EST
Moon 2:40 AM EST (1/7) 1:06 PM EST (1/7)
Length of Visible Light 10h 39m
Length of Day
9h 40m
Waning Crescent, 23% of the Moon is Illuminated
Jan 7
Waning Crescent
Jan 11
New
Jan 18
First Quarter
Jan 26
Full
Feb 3
Last Quarter

Hourly Weather History & Observations

Time (EST) Temp. Windchill Dew Point Humidity Pressure Visibility Wind Dir Wind Speed Gust Speed Precip Events Conditions
12:54 AM 41.0 °F 39.0 °F 32.0 °F 70% 30.13 in 10.0 mi West 3.5 mph - N/A   Overcast
1:54 AM 41.0 °F 38.0 °F 32.0 °F 70% 30.15 in 10.0 mi NW 4.6 mph - N/A   Overcast
2:54 AM 39.0 °F 34.0 °F 30.0 °F 70% 30.17 in 10.0 mi NNW 6.9 mph - N/A   Mostly Cloudy
3:54 AM 39.9 °F 35.8 °F 28.0 °F 63% 30.18 in 10.0 mi NNW 5.8 mph - N/A   Clear
4:54 AM 39.0 °F 33.4 °F 27.0 °F 62% 30.20 in 10.0 mi North 8.1 mph - N/A   Clear
5:54 AM 39.0 °F 33.4 °F 27.0 °F 62% 30.24 in 10.0 mi NNW 8.1 mph - N/A   Clear
6:54 AM 37.9 °F 32.7 °F 26.1 °F 62% 30.27 in 10.0 mi NNW 6.9 mph - N/A   Clear
7:54 AM 39.0 °F 34.0 °F 27.0 °F 62% 30.31 in 10.0 mi NNW 6.9 mph - N/A   Clear
8:54 AM 43.0 °F 39.5 °F 28.0 °F 56% 30.35 in 10.0 mi NW 5.8 mph - N/A   Clear
9:54 AM 46.0 °F 41.9 °F 28.0 °F 50% 30.37 in 10.0 mi North 8.1 mph 17.3 mph N/A   Clear
10:54 AM 48.9 °F - 26.1 °F 41% 30.38 in 10.0 mi North 11.5 mph - N/A   Clear
11:54 AM 50.0 °F - 26.1 °F 39% 30.37 in 10.0 mi North 9.2 mph - N/A   Clear
12:54 PM 51.1 °F - 26.1 °F 38% 30.35 in 10.0 mi NNW 11.5 mph 17.3 mph N/A   Clear
1:54 PM 52.0 °F - 26.1 °F 37% 30.36 in 10.0 mi NNW 9.2 mph - N/A   Partly Cloudy
2:54 PM 51.1 °F - 25.0 °F 36% 30.38 in 10.0 mi North 6.9 mph - N/A   Scattered Clouds
3:54 PM 50.0 °F - 25.0 °F 38% 30.40 in 10.0 mi NNE 5.8 mph - N/A   Clear
4:54 PM 44.1 °F 40.8 °F 30.0 °F 58% 30.42 in 10.0 mi ESE 5.8 mph - N/A   Clear
5:54 PM 37.4 °F - 28.4 °F 70% 30.44 in 10.0 mi Calm Calm - N/A   Clear
6:54 PM 39.0 °F - 28.9 °F 67% 30.45 in 10.0 mi Calm Calm - N/A   Clear
7:54 PM 36.0 °F - 28.0 °F 73% 30.45 in 10.0 mi Calm Calm - N/A   Clear
8:54 PM 34.0 °F - 27.0 °F 75% 30.46 in 10.0 mi Calm Calm - N/A   Clear
9:54 PM 33.1 °F - 27.0 °F 78% 30.44 in 10.0 mi Calm Calm - N/A   Clear
10:54 PM 33.1 °F - 26.1 °F 75% 30.45 in 10.0 mi Calm Calm - N/A   Clear
11:54 PM 32.0 °F - 26.1 °F 79% 30.44 in 10.0 mi Calm Calm - N/A   Clear